TimeMDT,TemperatureF,Dew PointF,Humidity,Sea Level PressureIn,VisibilityMPH,Wind Direction,Wind SpeedMPH,Gust SpeedMPH,PrecipitationIn,Events,Conditions,WindDirDegrees,DateUTC
12:35 AM,44.6,39.2,81,29.80,10.0,NE,4.6,-,N/A,,Mostly Cloudy,40,2013-09-26 06:35:00
12:55 AM,44.6,39.2,81,29.80,10.0,NNE,4.6,-,N/A,,Overcast,30,2013-09-26 06:55:00
1:15 AM,44.6,39.2,81,29.80,10.0,NNE,3.5,-,N/A,,Overcast,30,2013-09-26 07:15:00
1:35 AM,44.6,39.2,81,29.79,10.0,NNE,5.8,-,N/A,,Mostly Cloudy,20,2013-09-26 07:35:00
2:15 AM,44.6,37.4,76,29.79,10.0,North,5.8,-,N/A,,Partly Cloudy,360,2013-09-26 08:15:00
2:35 AM,44.6,37.4,76,29.79,10.0,NNE,4.6,-,N/A,,Partly Cloudy,20,2013-09-26 08:35:00
2:55 AM,44.6,37.4,76,29.80,10.0,North,3.5,-,N/A,,Partly Cloudy,10,2013-09-26 08:55:00
3:15 AM,44.6,37.4,76,29.79,10.0,Calm,Calm,-,N/A,,Scattered Clouds,0,2013-09-26 09:15:00
3:35 AM,44.6,37.4,76,29.79,10.0,Calm,Calm,-,N/A,,Scattered Clouds,0,2013-09-26 09:35:00
3:55 AM,44.6,37.4,76,29.78,10.0,East,3.5,-,N/A,,Mostly Cloudy,80,2013-09-26 09:55:00
4:15 AM,44.6,39.2,81,29.79,10.0,SSE,6.9,-,N/A,,Partly Cloudy,150,2013-09-26 10:15:00
4:35 AM,44.6,39.2,81,29.79,10.0,ESE,6.9,-,N/A,,Scattered Clouds,120,2013-09-26 10:35:00
4:55 AM,42.8,39.2,87,29.78,10.0,Calm,Calm,-,N/A,,Scattered Clouds,0,2013-09-26 10:55:00
5:15 AM,44.6,39.2,81,29.77,10.0,SSE,3.5,-,N/A,,Mostly Cloudy,150,2013-09-26 11:15:00
5:35 AM,44.6,39.2,81,29.78,10.0,South,5.8,-,N/A,,Partly Cloudy,170,2013-09-26 11:35:00
5:55 AM,44.6,39.2,81,29.78,10.0,SSE,4.6,-,N/A,,Scattered Clouds,160,2013-09-26 11:55:00
6:15 AM,44.6,39.2,81,29.77,10.0,Calm,Calm,-,N/A,,Mostly Cloudy,0,2013-09-26 12:15:00
6:35 AM,44.6,37.4,76,29.77,10.0,SSE,5.8,-,N/A,,Mostly Cloudy,150,2013-09-26 12:35:00
6:50 AM,44.6,37.4,76,29.78,15.0,Calm,Calm,-,N/A,,Overcast,0,2013-09-26 12:50:00
7:50 AM,44.6,39.2,81,29.77,15.0,Calm,Calm,-,N/A,,Mostly Cloudy,0,2013-09-26 13:50:00
8:50 AM,46.4,39.2,76,29.77,15.0,Calm,Calm,-,N/A,,Mostly Cloudy,0,2013-09-26 14:50:00
9:50 AM,48.2,37.4,66,29.77,15.0,Calm,Calm,-,N/A,,Mostly Cloudy,0,2013-09-26 15:50:00
10:50 AM,48.2,35.6,62,29.77,15.0,Calm,Calm,-,N/A,,Mostly Cloudy,0,2013-09-26 16:50:00
11:59 AM,51.8,37.4,58,29.77,15.0,Variable,5.8,-,N/A,,Mostly Cloudy,0,2013-09-26 17:59:00
12:51 PM,51.8,35.6,54,29.76,15.0,Variable,4.6,-,N/A,,Mostly Cloudy,0,2013-09-26 18:51:00
1:59 PM,55.4,35.6,47,29.74,15.0,West,6.9,-,N/A,,Scattered Clouds,280,2013-09-26 19:59:00
2:59 PM,57.2,35.6,44,29.72,15.0,West,10.4,-,N/A,,Scattered Clouds,280,2013-09-26 20:59:00
3:55 PM,57.2,35.6,44,29.73,15.0,West,11.5,-,N/A,,Mostly Cloudy,280,2013-09-26 21:55:00
4:50 PM,55.4,35.6,47,29.74,15.0,WNW,17.3,-,N/A,,Overcast,300,2013-09-26 22:50:00
5:50 PM,51.8,37.4,58,29.77,15.0,NW,11.5,-,N/A,Rain,Light Rain,310,2013-09-26 23:50:00
6:50 PM,48.2,37.4,66,29.79,15.0,NNW,6.9,-,N/A,,Overcast,330,2013-09-27 00:50:00
7:50 PM,46.4,39.2,76,29.82,15.0,NNW,9.2,-,N/A,Rain,Light Rain,340,2013-09-27 01:50:00
8:50 PM,46.4,41.0,81,29.84,15.0,Calm,Calm,-,N/A,Rain,Light Rain,0,2013-09-27 02:50:00
9:15 PM,46.4,41.0,81,29.85,10.0,Calm,Calm,-,N/A,,Overcast,0,2013-09-27 03:15:00
9:35 PM,46.4,39.2,76,29.85,10.0,NNW,8.1,-,N/A,,Overcast,330,2013-09-27 03:35:00
9:55 PM,46.4,39.2,76,29.86,10.0,NW,11.5,-,N/A,,Overcast,320,2013-09-27 03:55:00
10:15 PM,46.4,37.4,71,29.86,10.0,NW,10.4,-,N/A,,Overcast,320,2013-09-27 04:15:00
10:35 PM,44.6,39.2,81,29.87,10.0,NW,13.8,-,N/A,,Overcast,320,2013-09-27 04:35:00
10:55 PM,44.6,37.4,76,29.87,10.0,NNW,9.2,-,N/A,,Overcast,330,2013-09-27 04:55:00
11:15 PM,44.6,37.4,76,29.88,10.0,North,4.6,-,N/A,,Overcast,350,2013-09-27 05:15:00
11:35 PM,44.6,39.2,81,29.88,10.0,SE,10.4,-,N/A,,Overcast,130,2013-09-27 05:35:00
11:55 PM,42.8,39.2,87,29.88,10.0,ENE,4.6,-,N/A,,Overcast,70,2013-09-27 05:55:00